TITAN 3C TRANSTAGE DEB, 26765

Orbit data source: Space-Track

TITAN 3C TRANSTAGE DEB, 26765 is space debris in HEO originally from a launch on Tue, 21 Dec 1965 UTC launched from the Air Force Eastern Test Range (AFETR). Debris objects in space refer to the collection of defunct objects orbiting the Earth. Examples of debris include non-operational satellites, rocket bodies, and fragments generated from explosions, collisions, or faulty payload assembly.

Loading next visibility...
Identifier
26765, 1965-108AU
Orbit
HEO
Country
Flag of USUS
Related business
Manufacturer
Unknown
Mission
Spacecraft
Bus & Motor
Unknown
Mass
Unknown
Launch date (UTC)
1965-12-21 (60 years ago)
Launch vehicle
Unknown
Launch site
Air Force Eastern Test Range (AFETR)
Object type
Payload
Rocket body
Debris
Shape & HBR
Unknown shape, 0.1 m
Radar Cross Section
Medium (>0.1 m² and <1 m²)

Expand to show TLE details & history
Last TLE update: 5 days ago

TLE from 5 days ago
0 TITAN 3C TRANSTAGE DEB
1 26765U 65108AU  26114.96715516 -.00000242  00000-0 -11178-2 0  9990
2 26765  27.1297 346.5851 6706799 204.9309 347.3161  2.68924903 20616
Epoch: 2026-04-24T23:12Z
TLE epoch observation values (Epoch: 2026-04-24T23:12:42.205Z)
Latitude
18.92865°
Longitude
-76.39024°
Altitude
3,391.628 km
Speed
7.96 km/s
True Right ascension
08h 19m 06s
True Declination
18° 51' 06"
Sunlit
Object was in daylight at epoch
Visualization orbit readout
Latitude
Unknown
Longitude
Unknown
Altitude
Unknown
Speed
Unknown
Apparent Right ascension
Unknown
Apparent Declination
Unknown
Sunlit
N/A
Visualization observer readout
Local Sidereal Time
18:34:53
Azimuth
Unknown
Elevation
Unknown
Doppler factor
Unknown
Orbital elements
Apogee altitude
30,120.412 km
Perigee altitude
816.363 km
Semi-major axis
21,846.524 km
Eccentricity
0.67068
Inclination
27.1297°
RAAN
346.5851°
Arg. of periapsis
204.9309°
True anomaly
290.2524°
Mean anomaly
347.3161°
Eccentric anomaly
325.61353°
Mean motion
0.67216 °/min
Orbital period
535.59 mins
BSTAR
-0.0011178
Loading maneuver chart data...
Computing Atmospheric mass density...

Documentation

Showing up to 5 results
|